Regional Weather Roundup
Issued by NWS

Home | Current Version | Previous Version | Graphics & Text | Print | Product List | Glossary On
Versions: 1 2 3 4 5 6 7 8 9 10 11 12 13 14 15 16 17 18 19 20 21 22 23 24 25 26 27 28 29 30 31 32 33 34 35 36 37 38 39 40 41 42 43 44 45 46 47 48 49 50
000
ASUS43 KDTX 060210
RWRMI
MICHIGAN HOURLY REGIONAL WEATHER ROUNDUP
NATIONAL WEATHER SERVICE DETROIT/PONTIAC MI
1000 PM EDT SUN JUL 05 2015

NOTE: "FAIR" INDICATES FEW OR NO CLOUDS BELOW 12,000 FEET WITH NO
SIGNIFICANT WEATHER AND/OR OBSTRUCTION TO VISIBILITY.

MIZ047>049-052>055-059>063-066>070-074>076-081>083-060300-
SOUTHEAST LOWER MICHIGAN

CITY           SKY/WX    TMP DP  RH WIND       PRES   REMARKS
ADRIAN         MOCLDY    69  60  73 CALM      30.09S
ALMA           CLEAR     70  64  83 CALM      30.06S
ANN ARBOR      PTCLDY    65  58  78 CALM      30.09R
BAD AXE        PTCLDY    69  62  76 CALM      30.09R
CARO           PTCLDY    67  64  89 CALM      30.07S
DETROIT CITY   MOCLDY    72  53  51 S5        30.09R
DETROIT        MOCLDY    71  56  58 SE3       30.09R
FLINT          PTCLDY    74  60  61 S6        30.08R
GROSSE ILE     MOCLDY    70  63  78 SE3       30.07S
HILLSDALE      PTCLDY    70  63  78 SE3       30.10R
HOWELL         PTCLDY    69  58  68 SE6       30.09R

CITY           SKY/WX    TMP DP  RH WIND       PRES   REMARKS
JACKSON        PTCLDY    69  60  73 SE6       30.09R
LAMBERTVILLE   MOCLDY    67  61  79 SE3       30.09S
LANSING        PTCLDY    74  60  61 S7        30.07R
LAPEER         FAIR      69  57  65 SE3       30.08S
MASON          PTCLDY    66  59  78 SE5       30.08R
MONROE         MOCLDY    68  63  83 SE5       30.07F
MT. CLEMENS    PTCLDY    68  57  69 S3        30.07R
PONTIAC        MOCLDY    72  56  57 CALM      30.09R
PORT HOPE        N/A     68  62  81 SE5       30.06S
PORT HURON     PTCLDY    63  59  88 CALM      30.09S
TRI CITIES     CLEAR     75  61  61 S6        30.06S
MIDLAND        FAIR      67  63  85 CALM      30.05S
TROY           PTCLDY    75  53  45 CALM      30.10S
SAGINAW HB     PTCLDY    70  61  73 S3        30.06S
$$
MIZ043>046-050>051-056>058-064>065-071>073-077>080-060300-
SOUTHWEST LOWER MICHIGAN

CITY           SKY/WX    TMP DP  RH WIND       PRES   REMARKS
BATTLE CREEK   PTCLDY    74  62  66 S3        30.07S HAZE
BENTON HARBOR  CLEAR     68  62  81 CALM      30.04S
BIG RAPIDS     CLEAR     69  61  77 CALM      30.04F
COLDWATER      PTCLDY    70  60  70 CALM      30.08R
FREMONT        FAIR      69  61  75 CALM      30.03F
HOLLAND        CLEAR     69  61  75 SE3       30.04F
GRAND RAPIDS   PTCLDY    73  63  70 SE5       30.05S
IONIA          FAIR      69  64  82 S3        30.05S
KALAMAZOO      CLEAR     75  61  61 S5        30.06S
LUDINGTON      CLEAR     73  60  62 S5        30.03R
MARSHALL       PTCLDY    72  60  66 SE3       30.07R
MOUNT PLEASANT CLEAR     74  62  66 CALM      30.05R
MUSKEGON       PTCLDY    70  55  59 S5        30.03S
SOUTH HAVEN    CLEAR     66  61  84 CALM      30.04F
$$
MIZ016>042-060300-
NORTHERN LOWER MICHIGAN

CITY           SKY/WX    TMP DP  RH WIND       PRES   REMARKS
ALPENA         LGT RAIN  66  60  81 SE7       30.04F
BEAVER ISLAND  CLEAR     68  57  68 SW9       30.00S
BELLAIRE       CLEAR     70  65  85 CALM      30.00S
CADILLAC       CLEAR     71  61  70 S5        30.04F
CHARLEVOIX     CLEAR     66  60  80 CALM      30.03S
FRANKFORT      CLEAR     73  55  52 S5        30.00F
GAYLORD        CLEAR     73  62  68 S7        30.04S
GRAYLING       CLEAR     71  61  70 S3        30.06R
HARBOR SPRINGS CLEAR     66  62  85 CALM      30.00S
HOUGHTON LAKE  CLEAR     70  61  73 SE5       30.06S
MANISTEE         N/A     72  57  60 CALM      30.03R VSB 3/4
OSCODA         CLEAR     69  60  72 SE5       30.05S
PELLSTON       CLEAR     70  63  78 CALM      30.00F
ROGERS CITY    CLEAR     71  62  74 S9        30.03R
TRAVERSE CITY  MOCLDY    76  62  62 SW3       29.99S
$$
MIZ007>008-015-060300-
EASTERN UPPER MICHIGAN

CITY           SKY/WX    TMP DP  RH WIND       PRES   REMARKS
KINROSS        CLEAR     68  61  77 SE7       30.00S
MACKINAC ISLAN CLEAR     63  58  84 CALM      29.99S
NEWBERRY       CLEAR     64  60  86 S8        29.98S
S. S. MARIE    CLEAR     67  56  67 SE6       29.99S
MUNISING         N/A     71  59  65 S9        29.91S
$$
MIZ004>006-011>014-085-060300-
CENTRAL UPPER MICHIGAN

CITY           SKY/WX    TMP DP  RH WIND       PRES   REMARKS
MANISTIQUE     CLEAR     59  56  91 S6        29.97S FOG
ESCANABA       CLEAR     68  61  77 S8        29.95R
MENOMINEE      CLEAR     72  59  64 S10       29.95R
SAWYER-GWINN   CLEAR     72  61  68 S15G24    29.92F
$$
MIZ001>003-009>011-084-060300-
WESTERN UPPER MICHIGAN

CITY           SKY/WX    TMP DP  RH WIND       PRES   REMARKS
IRON MOUNTAIN  PTCLDY    73  61  65 S6        29.92F
HOUGHTON       MOCLDY    76  59  55 S9        29.82F
COPPER HARBOR    N/A     73  58  59 SW7       29.79F
IRONWOOD       PTCLDY    75  63  64 S13G21    29.78F
$$

ABBREVIATIONS USED IN REMARKS
   TC - TEMPERATURE IN CELSIUS
  WCI - WIND CHILL INDEX
   HX - HEAT INDEX
  VSB - VISIBILITY




USA.gov is the U.S. government's official web portal to all federal, state and local government web resources and services.